Location: Lake Sonoma
(38.7200°N, 123.0564°W)
Time: 04:10:31
(UTC-07:00)

Daily predictions for brighter satellites

Satellite Brightness Start Highest point End
(mag) Time Altitude Azimuth Time Altitude Azimuth Time Altitude Azimuth
Cosmos 1354 Rocket 4.5 00:01:34 10° NNW 00:05:50 58° NW 00:05:50 58° NW
Lacrosse 5 rocket 3.7 00:08:38 19° NW 00:08:52 20° NW 00:11:40 10° NNE
NOSS 3-1 (C) 4.0 00:03:21 10° NW 00:11:01 70° WSW 00:11:46 66° SSW
H-2A R/B 3.8 00:13:08 23° W 00:13:11 23° W 00:17:23 10° NW
USA 234 3.5 00:08:57 10° NE 00:15:25 67° NW 00:18:24 34° WSW
Cosmos 1818 4.4 00:24:58 44° NNE 00:24:58 44° NNE 00:28:40 10° NNE
Lacrosse 5 3.8 00:28:51 14° W 00:32:19 27° NW 00:36:39 10° NNE
Cosmos 2369 Rocket 3.1 00:34:53 43° WNW 00:35:00 43° WNW 00:40:21 10° N
CZ-2C R/B 4.3 00:34:46 10° NNE 00:37:25 25° ENE 00:37:25 25° ENE
ALOS 2 4.4 00:50:31 29° NNW 00:50:31 29° NNW 00:52:42 10° NNW
Cosmos 2061 Rocket 4.3 00:51:59 62° NE 00:51:59 62° NE 00:57:29 10° NNE
Cosmos 2219 4.2 00:46:56 10° N 00:51:36 39° NE 00:51:36 39° NE
Cosmos 1802 Rocket 4.3 00:59:07 58° NE 00:59:07 58° NE 01:04:20 10° NNE
Cosmos 1943 Rocket 2.9 01:03:42 50° NNW 01:03:42 50° NNW 01:08:06 10° NNE
Cosmos 2173 Rocket 4.2 01:03:34 68° NNE 01:03:34 68° NNE 01:09:03 10° N
Cosmos 1725 Rocket 4.5 01:23:22 52° NE 01:23:22 52° NE 01:28:26 10° NNE
MOS 1-B Rocket 4.5 01:29:57 56° WNW 01:29:57 56° WNW 01:35:46 10° NNW
NOSS 3-3 (A) 4.2 01:32:38 68° NNE 01:32:38 68° NNE 01:38:27 10° NNE
ATLAS CENTAUR R/B 4.3 01:34:29 13° ENE 01:34:29 13° ENE 01:35:16 10° ENE
NOSS 3-3 (C) 4.2 01:32:44 68° NNE 01:32:44 68° NNE 01:38:32 10° NNE
Tsikada Rocket 4.2 01:35:17 10° N 01:40:58 67° NE 01:40:58 67° NE
CZ-2C R/B 4.1 01:53:12 38° NNW 01:53:12 38° NNW 01:56:09 10° NNW
ATLAS 2AS CENTAUR R/B 3.4 01:46:29 10° NW 01:53:00 47° W 01:53:00 47° W
Meteor 2-17 Rocket 4.5 02:19:03 74° N 02:19:03 74° N 02:24:37 10° N
Cosmos 1697 Rocket 4.2 02:19:13 25° E 02:19:13 25° E 02:23:17 10° NE
CZ-2C R/B 4.0 02:15:10 10° N 02:18:56 28° NW 02:18:56 28° NW
Cosmos 2233 Rocket 4.0 02:25:24 68° NW 02:25:24 68° NW 02:30:59 10° N
Cosmos 1464 Rocket 4.4 02:26:08 52° E 02:26:25 53° E 02:32:32 10° NNE
Cosmos 2082 4.0 02:22:03 10° NNW 02:27:23 62° NE 02:27:23 62° NE
Cosmos 1980 Rocket 4.1 02:28:07 18° ESE 02:28:21 18° E 02:32:01 10° ENE
SeaSat 1 3.0 02:34:34 55° N 02:34:34 55° N 02:38:34 10° NNW
Cosmos 2227 Rocket 2.3 02:30:31 10° NNW 02:35:39 70° NNE 02:35:39 70° NNE
Cosmos 2298 Rocket 4.4 02:31:13 10° NNW 02:35:54 61° NNE 02:35:54 61° NNE
Cosmos 468 Rocket 4.3 02:46:04 63° NE 02:46:04 63° NE 02:50:26 10° NNE
NPP 3.8 02:45:00 10° NNE 02:50:08 64° E 02:50:08 64° E
Cosmos 1513 Rocket 4.4 02:53:16 67° SE 02:53:43 70° E 02:59:45 10° NNE
Cosmos 2278 4.1 02:56:15 53° NW 02:56:15 53° NW 03:01:37 10° NNE
Cosmos 2297 Rocket 2.1 02:51:26 10° NNW 02:57:06 82° ENE 02:57:06 82° ENE
Cosmos 2369 3.9 02:58:43 57° WNW 02:58:43 57° WNW 03:04:09 10° NNE
Milstar 3 Cent rocket 4.3 03:02:11 14° ESE 03:02:11 14° ESE 03:03:18 10° ESE
SL-08 R/B 3.6 03:03:12 64° NNE 03:03:12 64° NNE 03:07:15 10° N
Cosmos 405 Rocket 4.4 02:59:10 10° N 03:01:28 32° N 03:01:28 32° N
Cosmos 1072 Rocket 4.5 03:05:10 67° WSW 03:05:37 70° W 03:12:01 10° N
Meteor 2-5 Rocket 3.7 02:59:50 10° N 03:05:46 86° W 03:06:03 81° SSW
ERS-2 3.7 03:06:07 10° NNE 03:08:37 33° ENE 03:08:37 33° ENE
ATLAS CENTAUR R/B 2.3 03:10:48 53° NW 03:10:48 53° NW 03:15:26 10° NNE
Cosmos 1891 Rocket 4.2 03:11:45 74° SSW 03:12:22 86° W 03:18:31 10° N
Cosmos 2150 Rocket 4.4 03:08:28 10° NNW 03:12:34 51° NW 03:12:34 51° NW
Cosmos 841 Rocket 3.7 03:14:44 60° ESE 03:15:01 61° ESE 03:20:13 10° NNE
Cosmos 1898 Rocket 3.9 03:10:06 10° NNW 03:14:26 52° WNW 03:14:26 52° WNW
SL-16 R/B 4.4 03:13:56 12° SE 03:16:33 16° E 03:19:55 10° ENE
Cosmos 1766 4.3 03:17:23 44° ENE 03:17:23 44° ENE 03:20:32 10° NNE
NOSS 3-4 (A) 3.7 03:10:26 10° NNW 03:17:30 89° ENE 03:23:09 19° SSE
NOSS 3-4 (C) 3.7 03:10:33 10° NNW 03:17:38 88° NE 03:23:36 17° SSE
Cosmos 1763 Rocket 3.4 03:18:52 75° SE 03:19:02 76° ESE 03:24:14 10° NNE
Cosmos 1937 Rocket 3.4 03:18:07 10° NNW 03:22:56 70° WNW 03:22:56 70° WNW
Geosat 3.9 03:18:44 10° NNE 03:23:47 77° ESE 03:24:03 74° SSE
CBERS 1 LM4 rocket 4.2 03:22:06 10° NNE 03:26:57 87° ESE 03:27:08 83° S
Cosmos 1656 3.8 03:26:45 58° W 03:27:17 61° WNW 03:32:53 10° NNE
Cosmos 2034 Rocket 3.9 03:28:10 59° SW 03:29:04 66° W 03:35:15 10° N
Nadezhda 4 Rocket 3.9 03:28:16 10° N 03:34:30 86° E 03:36:47 42° S
Cosmos 1441 Rocket 3.7 03:31:11 10° N 03:35:09 58° E 03:35:13 58° E
BREEZE-M DEB (TANK) 3.2 03:35:13 56° S 03:35:45 60° SE 03:39:42 10° ENE
IRS-1C 4.0 03:30:41 10° N 03:36:00 70° WNW 03:36:39 63° WSW
CZ-2D R/B 2.9 03:31:38 10° NNE 03:36:52 45° E 03:38:58 31° SSE
Meteor 1-24 Rocket 3.7 03:33:30 10° NNW 03:39:17 78° W 03:40:46 52° S
Meteor 1-22 Rocket 4.3 03:40:19 54° SSW 03:41:43 74° W 03:47:51 10° N
BREEZE-M DEB (TANK) 4.4 03:35:11 10° WNW 03:39:41 27° WNW 03:39:41 27° WNW
ARIANE 5 R/B 2.6 03:38:35 10° NNE 03:43:44 70° ESE 03:45:08 48° SSE
Cosmos 1805 4.1 03:43:42 41° ESE 03:44:10 44° E 03:47:54 10° NNE
IRAS Rocket 4.4 03:39:26 10° N 03:44:56 56° WNW 03:46:00 48° WSW
ERS-1 4.3 03:40:04 10° NNE 03:45:08 87° WNW 03:46:01 62° SSW
CZ-3 R/B 4.4 03:29:13 29° SW 03:47:40 46° S 03:58:53 10° ESE
SL-16 R/B 2.7 03:44:11 18° SSE 03:48:53 72° ENE 03:55:03 10° N
SME Rocket 4.3 03:48:30 27° SSE 03:52:02 89° ENE 04:00:52 10° NNW
Cosmos 1758 3.5 03:53:04 58° SE 03:53:34 66° E 03:57:33 10° NNE
Cosmos 1953 2.4 03:56:01 63° SSE 03:56:32 75° E 04:00:37 10° N
In-Cosmos 22 4.2 03:52:08 10° N 03:57:25 70° E 04:00:56 22° SSE
ADEOS 3.9 03:55:43 10° N 04:00:45 50° WNW 04:01:52 43° WSW
Cosmos 1697 Rocket 3.3 04:00:57 35° W 04:02:24 42° WNW 04:07:46 10° N
Cosmos 2026 Rocket 4.5 03:58:54 10° N 04:05:10 61° E 04:11:18 10° SSE
Cosmos 1076 Rocket 3.6 04:01:58 10° NNW 04:06:10 52° W 04:06:17 52° W
BREEZE-M DEB (TANK) 4.4 04:03:37 19° W 04:06:16 29° NNW 04:08:50 10° NNE
Spot 4 Rocket 4.4 04:01:48 10° N 04:06:47 49° WNW 04:08:03 40° WSW
Resurs 1-4 Rocket 2.0 04:03:29 10° NNE 04:08:46 89° WNW 04:11:01 36° SSW
Cosmos 1980 Rocket 2.4 04:09:53 39° WSW 04:11:47 58° WNW 04:17:23 10° NNE
Cosmos 2360 Rocket 4.4 04:09:04 10° SE 04:12:49 18° E 04:16:33 10° ENE
Cosmos 1634 Rocket 3.9 04:10:05 31° SSW 04:13:19 79° W 04:19:38 10° N
IRS-1D 3.5 04:11:14 10° N 04:16:09 62° WNW 04:17:55 38° SW
Cosmos 2195 Rocket 4.4 04:10:28 10° N 04:16:37 85° E 04:22:22 12° S
USA 161 3.9 04:19:04 14° NW 04:19:04 14° NW 04:19:35 10° NW
Cosmos 2227 Rocket 4.3 04:17:10 10° WNW 04:17:25 10° WNW 04:17:25 10° WNW
Cosmos 332 Rocket 3.7 04:20:10 35° SSW 04:22:13 89° NW 04:27:05 10° NNE
Cosmos 1500 Rocket 3.9 04:18:03 10° N 04:22:26 64° E 04:26:25 12° SSE
Cosmos 2322 Rocket 2.3 04:21:42 25° S 04:25:00 71° ESE 04:30:36 10° NNE
Cosmos 1092 Rocket 4.2 04:20:34 10° NNW 04:26:36 50° W 04:30:04 25° SSW
Meteor 1-21 Rocket 4.3 04:20:54 10° NNW 04:26:51 79° W 04:32:29 11° S
Cosmos 1743 Rocket 3.4 04:24:00 10° NNW 04:28:20 72° W 04:30:47 25° S
Cosmos-2242 3.7 04:33:40 32° WSW 04:34:45 37° WNW 04:38:45 10° N
Cosmos 1437 3.0 04:31:48 10° NNW 04:35:02 49° W 04:35:32 44° SW
Cosmos 1627 Rocket 4.4 04:28:48 10° NNW 04:35:03 69° W 04:40:56 11° S
UNK 4.1 04:34:04 29° SSW 04:35:55 43° W 04:40:23 10° NNW
Cosmos 2221 4.2 04:32:16 10° SSE 04:36:02 31° E 04:39:51 10° NNE
RESURS DK-1 2.2 04:34:21 10° NNW 04:38:30 85° WSW 04:42:37 10° SSE
MTI 3.7 04:37:25 31° S 04:38:50 68° WSW 04:42:07 10° NNW
GPS 2-04 Rocket1 3.2 04:39:16 33° SW 04:40:05 37° SSW 04:43:43 10° SE
Cosmos 2297 Rocket 4.2 04:38:25 10° WNW 04:38:51 11° W 04:38:51 11° W
Cosmos 371 Rocket 3.2 04:37:54 24° SSW 04:40:51 88° WNW 04:45:41 10° NNE
Cosmos 372 Rocket 3.8 04:36:12 10° NNW 04:41:19 82° WSW 04:46:24 10° SSE
Cosmos 1470 2.7 04:40:34 23° S 04:42:57 86° W 04:46:57 10° N
MOS 1-B 4.5 04:37:16 10° N 04:42:59 60° WNW 04:46:55 20° SW
ERS-2 4.4 04:41:38 10° NW 04:43:04 12° WNW 04:43:27 12° WNW
Okean O Rocket 1.6 04:41:50 10° NNE 04:46:15 82° ESE 04:49:54 15° S
Aureole 1 Rocket 4.2 04:44:09 21° SSW 04:48:27 72° WNW 04:56:09 10° NNE
Cosmos 1428 Rocket 4.5 04:42:34 10° N 04:48:44 86° E 04:54:50 10° S
CZ-2C R/B 3.8 04:45:51 10° SSE 04:50:33 86° ENE 04:55:11 10° NNW
USA 81 4.2 04:47:17 19° SSW 04:50:58 56° W 04:56:11 10° N
Abrixas 3.3 04:55:34 29° SW 04:55:36 29° SW 04:58:18 10° SSE
PSLV R/B 3.6 04:52:42 10° N 04:56:31 72° WNW 04:59:17 17° SSW
SL-16 R/B 2.3 04:55:50 18° SW 05:00:03 64° WNW 05:05:41 10° NNE
Cosmos 1125 Rocket 4.3 04:58:57 10° NW 05:03:22 29° W 05:07:24 12° SSW
Cosmos 2279 Rocket 4.2 04:59:34 14° SSW 05:04:56 53° W 05:11:03 10° N
DELTA 2 R/B (1) 3.7 05:03:39 17° WSW 05:07:54 65° SSE 05:13:25 10° E
CZ-2D R/B 4.3 05:04:23 10° N 05:08:25 37° WNW 05:11:35 15° SW
UNKNOWN OBJECT B 4.2 05:06:35 10° NNW 05:09:39 23° WNW 05:11:36 16° WSW
Cosmos 1461 3.5 05:06:17 10° NW 05:09:53 31° WSW 05:13:22 10° S
Cosmos 2263 Rocket 2.5 05:05:08 10° NNW 05:10:43 71° ENE 05:16:15 10° SSE
Lacrosse 5 rocket 4.1 05:09:06 10° N 05:11:27 16° NNE 05:13:48 10° ENE
IRS-1C Rocket 4.4 05:08:50 10° N 05:13:56 52° WNW 05:18:59 10° SSW
ADEOS II 3.2 05:09:10 10° NNE 05:14:10 44° E 05:19:10 10° S
Cosmos 1733 3.7 05:12:11 14° SSW 05:15:06 41° W 05:18:43 10° N
CZ-2D R/B 3.5 05:12:25 10° NNW 05:16:36 23° WNW 05:20:17 12° WSW
Cosmos 2322 4.0 05:15:14 10° SSW 05:20:54 71° ESE 05:26:37 10° NNE
CZ-4B R/B 2.9 05:18:10 10° N 05:21:58 56° WNW 05:25:35 10° SSW
ARIANE 5 R/B 4.4 05:19:35 10° NNW 05:22:15 14° WNW 05:24:55 10° W
CZ-4B R/B 3.3 05:17:01 10° N 05:22:27 61° WNW 05:27:45 10° SSW
Cosmos 1805 Rocket 3.6 05:19:25 10° N 05:23:47 82° E 05:28:10 10° S
GEOS 3 Rocket 4.2 05:25:36 10° S 05:30:17 34° WSW 05:34:57 10° NW
Cosmos 2266 Rocket 4.0 05:26:47 10° N 05:32:57 78° W 05:39:13 10° S
SL-16 R/B 4.0 05:29:26 10° SW 05:33:02 16° W 05:36:40 10° NW
Meteor 2-20 Rocket 4.4 05:27:38 10° NNW 05:33:41 68° W 05:39:43 10° S
Meteor 1-16 Rocket 4.4 05:28:40 10° SSW 05:34:32 63° W 05:40:25 10° N
Sich 1 3.5 05:30:29 10° N 05:34:47 67° E 05:39:06 10° SSE
Cosmos 1328 4.3 05:31:01 10° NNW 05:34:47 39° W 05:38:33 10° SSW
Okean-O 2.7 05:30:59 10° NNE 05:35:27 89° WNW 05:39:53 10° SSW
Cosmos 2151 3.6 05:31:34 10° NNW 05:35:33 37° W 05:39:30 10° SSW
Milstar 3 Cent rocket 3.8 05:31:10 10° WSW 05:36:05 30° S 05:44:04 10° SE
Aureole 3 4.0 05:34:35 10° NNW 05:39:12 68° W 05:45:08 10° S
Cosmos 304 Rocket 3.8 05:38:28 10° SSW 05:43:16 76° WNW 05:48:06 10° NNE
Cosmos 1674 4.5 05:42:14 10° NW 05:44:22 15° W 05:46:30 10° WSW
Cosmos 1680 Rocket 3.6 05:39:56 10° SSW 05:45:08 82° ESE 05:50:24 10° NNE
CSL-04 DEB 4.3 05:41:32 10° NNE 05:45:28 81° WNW 05:49:25 10° SSW
Lacrosse 5 4.0 05:42:14 10° NNW 05:46:42 30° NE 05:51:09 10° E
